Location: São Paulo
(23.5507°S, 46.6334°W)
Time: 08:10:32
(UTC-03:00)

Vanguard 3 - Pass Details

Date: 20 February 2026
Orbit: 507 x 3205 km, 33.4° (Epoch: 7 March)

Event Time Altitude Azimuth Distance (km) Brightness Sun altitude
Exits shadow 02:50:41 72° 126° (SE) 1,586 8.5 -39.6°
Drops below altitude 10° 03:02:10 10° 115° (ESE) 4,872 11.8 -37.5°
Sets 03:06:58 0° 114° (ESE) 6,283 12.6 -36.6°
